Track STARLINK-3751 now! 10-day predictions STARLINK-3751 is classified as:
1 52289U 22041AE 22221.16667824 -.00032495 00000-0 -20316-2 0 9993 2 52289 53.2141 213.3068 0002506 51.1842 92.7651 15.08859143 18183